Volver al catálogo

ARIANE 1 DEB

ActivoGTO
NORAD 28556·DEBRIS·🇫🇷 France

Lanzado Dec 24, 1979 desde Guiana Space Centre

Loading…

TLE

ObsoletoSource: Space-Track

Época: Sep 13, 2026, 06:31 UTC

1 28556U 79104V   26256.27209477 -.00000295  00000-0  11492-1 0  9991
2 28556  15.3659 222.0272 7293432 109.4153   2.2421  1.95678942 97083

Sigue ARIANE 1 DEB en tiempo real con AllMySat

Download on the App Store